AAH1944 SVMI-TJSJ

Flight info

Callsign AAH1944
Flight time N/A
Altitude 37000
Route MIDUR DCT TOSOS DCT SILVA DCT ARMUR JOSHE3
Aircraft B752/M-SDE2E3FGHIJ3J4J7RWXY/LB1

Departure

Time N/A
Airport Maiquetía Simón Bolívar International Airport (SVMI)

Arrival

Time 2026-05-04 19:33
Airport Luis Munoz Marin International Airport (TJSJ)
Time Latitude Longitude Altitude Speed Heading
2026-05-04 19:08 16.81723 -66.57226 32963 ft 465 kts
2026-05-04 19:09 16.85047 -66.57058 32360 ft 491 kts
2026-05-04 19:09 16.88551 -66.56882 31663 ft 518 kts
2026-05-04 19:09 16.92219 -66.56697 31397 ft 533 kts
2026-05-04 19:09 16.95889 -66.56513 31455 ft 539 kts
2026-05-04 19:10 17.03378 -66.56139 31233 ft 529 kts
2026-05-04 19:10 17.07015 -66.55958 30836 ft 517 kts
2026-05-04 19:10 17.10575 -66.55780 30434 ft 507 kts
2026-05-04 19:11 17.14064 -66.55607 30031 ft 498 kts
2026-05-04 19:11 17.17492 -66.55436 29627 ft 489 kts
2026-05-04 19:11 17.20857 -66.55268 29223 ft 479 kts
2026-05-04 19:11 17.24157 -66.55104 28819 ft 470 kts
2026-05-04 19:12 17.27352 -66.54945 28419 ft 461 kts
2026-05-04 19:12 17.33618 -66.54634 27609 ft 441 kts
2026-05-04 19:12 17.36654 -66.54483 27205 ft 433 kts
2026-05-04 19:13 17.39633 -66.54334 26801 ft 425 kts
2026-05-04 19:13 17.42561 -66.54188 26397 ft 417 kts
2026-05-04 19:13 17.45436 -66.54045 25993 ft 411 kts
2026-05-04 19:13 17.48271 -66.53903 25590 ft 404 kts
2026-05-04 19:14 17.51060 -66.53763 25186 ft 399 kts
2026-05-04 19:14 17.53773 -66.53626 24789 ft 393 kts
2026-05-04 19:14 17.56486 -66.53489 24387 ft 388 kts
2026-05-04 19:14 17.59167 -66.53352 23984 ft 383 kts
2026-05-04 19:15 17.61819 -66.53216 23582 ft 379 kts
2026-05-04 19:15 17.64435 -66.53079 23180 ft 375 kts
2026-05-04 19:15 17.67026 -66.52945 22779 ft 371 kts
2026-05-04 19:15 17.69591 -66.52818 22378 ft 367 kts
2026-05-04 19:16 17.72132 -66.52693 21976 ft 364 kts
2026-05-04 19:16 17.74609 -66.52571 21582 ft 360 kts
2026-05-04 19:16 17.77102 -66.52449 21181 ft 357 kts
2026-05-04 19:16 17.79574 -66.52328 20780 ft 354 kts
2026-05-04 19:17 17.82022 -66.52207 20380 ft 351 kts
2026-05-04 19:17 17.84451 -66.52088 19979 ft 348 kts
2026-05-04 19:17 17.86859 -66.51969 19579 ft 345 kts
2026-05-04 19:17 17.89253 -66.51851 19179 ft 343 kts
2026-05-04 19:18 17.91626 -66.51733 18778 ft 340 kts
2026-05-04 19:18 17.93950 -66.51618 18383 ft 338 kts
2026-05-04 19:18 17.96292 -66.51502 17983 ft 336 kts
2026-05-04 19:18 17.98615 -66.51387 17583 ft 333 kts
2026-05-04 19:19 18.00925 -66.51272 17182 ft 331 kts
2026-05-04 19:19 18.03220 -66.51157 16782 ft 329 kts
2026-05-04 19:19 18.05505 -66.51043 16381 ft 327 kts
2026-05-04 19:19 18.07773 -66.50930 15981 ft 326 kts
2026-05-04 19:20 18.10036 -66.50816 15579 ft 324 kts
2026-05-04 19:20 18.12282 -66.50703 15179 ft 323 kts
2026-05-04 19:20 18.14516 -66.50591 14783 ft 321 kts
2026-05-04 19:20 18.16718 -66.50479 14388 ft 320 kts
2026-05-04 19:21 18.18940 -66.50368 13990 ft 319 kts
2026-05-04 19:21 18.21159 -66.50256 13587 ft 318 kts
2026-05-04 19:21 18.23327 -66.49913 13153 ft 314 kts 21°
2026-05-04 19:21 18.25176 -66.48768 12762 ft 307 kts 44°
2026-05-04 19:22 18.26539 -66.47068 12399 ft 303 kts 55°
2026-05-04 19:22 18.27716 -66.45236 11987 ft 302 kts 58°
2026-05-04 19:22 18.28854 -66.43380 11584 ft 301 kts 58°
2026-05-04 19:22 18.29964 -66.41551 11191 ft 301 kts 58°
2026-05-04 19:23 18.31086 -66.39697 10789 ft 300 kts 58°
2026-05-04 19:23 18.32201 -66.37851 10392 ft 299 kts 58°
2026-05-04 19:23 18.33315 -66.36005 9995 ft 298 kts 58°
2026-05-04 19:23 18.34423 -66.34166 9593 ft 297 kts 58°
2026-05-04 19:24 18.35528 -66.32332 9194 ft 297 kts 58°
2026-05-04 19:24 18.36657 -66.30517 8790 ft 296 kts 57°
2026-05-04 19:24 18.37802 -66.28723 8394 ft 295 kts 57°
2026-05-04 19:24 18.38950 -66.26936 7993 ft 294 kts 57°
2026-05-04 19:25 18.40071 -66.25177 7603 ft 293 kts 57°
2026-05-04 19:25 18.41201 -66.23396 7195 ft 293 kts 57°
2026-05-04 19:25 18.42328 -66.21618 6802 ft 292 kts 57°
2026-05-04 19:25 18.43272 -66.19737 6375 ft 291 kts 72°
2026-05-04 19:26 18.43560 -66.17649 6002 ft 289 kts 88°
2026-05-04 19:26 18.43488 -66.15533 5605 ft 289 kts 92°
2026-05-04 19:26 18.43387 -66.13421 5205 ft 288 kts 91°
2026-05-04 19:26 18.43358 -66.11310 4807 ft 288 kts 89°
2026-05-04 19:27 18.43709 -66.09261 4488 ft 284 kts 70°
2026-05-04 19:27 18.44720 -66.07540 4240 ft 280 kts 49°
2026-05-04 19:27 18.46253 -66.06365 3927 ft 266 kts 26°
2026-05-04 19:27 18.48006 -66.06026 3649 ft 251 kts 359°
2026-05-04 19:28 18.49613 -66.06583 3381 ft 241 kts 329°
2026-05-04 19:28 18.50740 -66.07809 3147 ft 227 kts 308°
2026-05-04 19:28 18.51469 -66.09231 2823 ft 219 kts 285°
2026-05-04 19:28 18.51427 -66.10768 2554 ft 206 kts 250°
2026-05-04 19:29 18.50612 -66.11934 2335 ft 195 kts 212°
2026-05-04 19:29 18.49397 -66.12378 2200 ft 179 kts 183°
2026-05-04 19:29 18.48202 -66.12439 2101 ft 173 kts 167°
2026-05-04 19:29 18.47196 -66.11858 2063 ft 161 kts 127°
2026-05-04 19:30 18.46602 -66.10929 2037 ft 147 kts 118°
2026-05-04 19:30 18.46093 -66.10016 1818 ft 142 kts 117°
2026-05-04 19:30 18.45599 -66.09122 1629 ft 142 kts 117°
2026-05-04 19:30 18.45103 -66.08219 1444 ft 143 kts 118°
2026-05-04 19:31 18.44609 -66.07320 1258 ft 141 kts 118°
2026-05-04 19:31 18.44124 -66.06440 1072 ft 138 kts 118°
2026-05-04 19:31 18.43727 -66.05533 893 ft 135 kts 106°
2026-05-04 19:31 18.43531 -66.04576 737 ft 134 kts 96°
2026-05-04 19:32 18.43424 -66.03609 517 ft 138 kts 95°
2026-05-04 19:32 18.43371 -66.02602 290 ft 135 kts 91°
2026-05-04 19:32 18.43356 -66.01633 78 ft 128 kts 89°
2026-05-04 19:32 18.43353 -66.00764 20 ft 99 kts 88°
2026-05-04 19:33 18.43356 -66.00281 20 ft 49 kts 90°
2026-05-04 19:33 18.43356 -66.00044 20 ft 20 kts 89°
2026-05-04 19:33 18.43364 -65.99956 20 ft 7 kts 71°
2026-05-04 19:33 18.43422 -65.99916 20 ft 11 kts 352°
2026-05-04 19:34 18.43455 -65.99953 20 ft 8 kts 285°
2026-05-04 19:34 18.43465 -66.00033 20 ft 10 kts 272°
2026-05-04 19:34 18.43464 -66.00069 20 ft 1 kts 268°
2026-05-04 19:34 18.43462 -66.00122 20 ft 15 kts 268°
2026-05-04 19:35 18.43469 -66.00214 20 ft 11 kts 306°
2026-05-04 19:35 18.43527 -66.00240 20 ft 7 kts 337°
2026-05-04 19:35 18.43556 -66.00265 20 ft 6 kts 326°
2026-05-04 19:35 18.43588 -66.00275 20 ft 3 kts 347°
2026-05-04 19:36 18.43618 -66.00278 20 ft 0 kts 359°